Muncie, IN

12:52 PM EST on November 22, 2019 (GMT -0500)
Delaware County-Johnson

Weather History for KMIE - October, 2019

Change the Weather History Date:

Monday, October 21, 2019

  Actual Average Record
Temperature  
Mean Temperature 60 °F 52 °F  
Max Temperature 70 °F 63 °F 79 °F (1963)
Min Temperature 51 °F 42 °F 23 °F (1991)
Degree Days  
Heating Degree Days 4 13  
Month to date heating degree days 138 217  
Since 1 July heating degree days 141 318  
Cooling Degree Days 0 0  
Month to date cooling degree days 47 13  
Year to date cooling degree days 1355 952  
Growing Degree Days 10 (Base 50)    
Moisture  
Dew Point 56 °F    
Average Humidity 80    
Maximum Humidity 90    
Minimum Humidity 63    
Precipitation  
Precipitation 0.45 in 0.08 in 0.58 in (2005)
Month to date precipitation 0.75 2.01  
Year to date precipitation 36.69 32.88  
Sea Level Pressure  
Sea Level Pressure 29.73 in    
Wind  
Wind Speed 9 mph ()    
Max Wind Speed 23 mph    
Max Gust Speed 37 mph    
Visibility 7.5 miles    
Events Rain , Thunderstorm    
T = Trace of Precipitation, MM = Missing Value Source: Averaged Metar Reports

Daily Weather History Graph

Daily Weather History Graph

Search for Another Location

Airport or City:

Astronomy

Oct. 21, 2019 Rise Set
Actual Time 7:58 AM EDT 6:53 PM EDT
Civil Twilight 7:30 AM EDT 7:20 PM EDT
Nautical Twilight 6:59 AM EDT 7:52 PM EDT
Astronomical Twilight 6:27 AM EDT 8:23 PM EDT
Moon 12:02 AM EDT (10/21) 3:16 PM EDT (10/21)
Length of Visible Light 11h 50m
Length of Day
10h 54m
Waning Gibbous, 48% of the Moon is Illuminated
Oct 21
Waning Gibbous
Oct 27
New
Nov 4
First Quarter
Nov 12
Full
Nov 19
Last Quarter

Hourly Weather History & Observations

Time (EDT) Temp. Dew Point Humidity Pressure Visibility Wind Dir Wind Speed Gust Speed Precip Events Conditions
12:53 AM 52.0 °F 46.0 °F 80% 29.90 in 10.0 mi ESE 3.5 mph - N/A   Clear
1:53 AM 57.9 °F 48.0 °F 70% 29.87 in 10.0 mi SSE 5.8 mph - N/A   Clear
2:53 AM 57.0 °F 48.0 °F 72% 29.86 in 10.0 mi SSE 5.8 mph - N/A   Clear
3:53 AM 57.0 °F 51.1 °F 81% 29.85 in 10.0 mi SSE 4.6 mph - N/A   Clear
4:53 AM 57.0 °F 52.0 °F 83% 29.84 in 10.0 mi SSE 5.8 mph - N/A   Clear
5:53 AM 57.0 °F 53.1 °F 87% 29.84 in 7.0 mi SE 5.8 mph - N/A   Clear
6:53 AM 57.0 °F 53.1 °F 87% 29.81 in 6.0 mi SE 8.1 mph - N/A   Clear
7:53 AM 57.9 °F 54.0 °F 87% 29.79 in 8.0 mi SE 8.1 mph - N/A   Partly Cloudy
8:06 AM 59.0 °F 54.0 °F 83% 29.81 in 8.0 mi SSE 10.4 mph 19.6 mph N/A   Mostly Cloudy
8:53 AM 60.1 °F 55.0 °F 83% 29.78 in 10.0 mi ESE 11.5 mph - N/A   Overcast
10:19 AM 61.0 °F 55.9 °F 83% 29.78 in 7.0 mi SSE 10.4 mph 25.3 mph 0.00 in Rain Light Rain
10:47 AM 62.6 °F 57.2 °F 82% 29.81 in 2.5 mi South 9.2 mph 19.6 mph 0.07 in Rain , Thunderstorm Rain
10:53 AM 61.0 °F 57.0 °F 87% 29.80 in 0.8 mi South 10.4 mph 19.6 mph 0.18 in Rain , Thunderstorm Heavy Rain
11:13 AM 61.0 °F 57.0 °F 87% 29.76 in 2.0 mi SE 13.8 mph 20.7 mph 0.08 in Rain , Thunderstorm Rain
11:21 AM 61.0 °F 57.0 °F 87% 29.75 in 2.0 mi SE 15.0 mph 23.0 mph 0.11 in Rain Heavy Rain
11:41 AM 61.0 °F 57.0 °F 87% 29.73 in 2.5 mi SE 18.4 mph 27.6 mph 0.18 in Rain Rain
11:51 AM 60.8 °F 57.2 °F 88% 29.73 in 4.0 mi SSE 16.1 mph 26.5 mph 0.20 in Rain Light Rain
11:53 AM 61.0 °F 57.0 °F 87% 29.71 in 4.0 mi SSE 15.0 mph 26.5 mph 0.20 in Rain Light Rain
12:24 PM 61.0 °F 57.0 °F 87% 29.74 in 2.5 mi SSE 11.5 mph 21.9 mph 0.04 in Rain Rain
12:36 PM 62.1 °F 57.0 °F 84% 29.72 in 2.0 mi SSE 13.8 mph 23.0 mph 0.06 in Rain Light Rain
12:42 PM 62.1 °F 57.0 °F 84% 29.72 in 4.0 mi SSE 16.1 mph 25.3 mph 0.06 in Rain Light Rain
12:53 PM 62.1 °F 57.0 °F 84% 29.70 in 7.0 mi SSE 10.4 mph 21.9 mph 0.06 in Rain Light Rain
1:14 PM 62.1 °F 57.9 °F 86% 29.68 in 9.0 mi SE 17.3 mph 23.0 mph 0.01 in Rain Light Rain
1:53 PM 63.0 °F 57.9 °F 84% 29.65 in 10.0 mi SE 17.3 mph 23.0 mph 0.01 in   Overcast
2:16 PM 64.0 °F 57.9 °F 80% 29.64 in 10.0 mi SSE 11.5 mph 24.2 mph 0.00 in Rain Light Rain
2:53 PM 64.9 °F 59.0 °F 81% 29.63 in 10.0 mi South 13.8 mph 27.6 mph 0.00 in   Overcast
3:29 PM 66.0 °F 60.1 °F 81% 29.60 in 10.0 mi South 17.3 mph 32.2 mph 0.00 in Rain Light Rain
3:53 PM 68.0 °F 60.1 °F 76% 29.60 in 10.0 mi South 17.3 mph 29.9 mph 0.00 in Rain Light Rain
4:53 PM 69.1 °F 61.0 °F 75% 29.61 in 10.0 mi North - - 0.00 in Rain Light Rain
5:53 PM 70.0 °F 57.0 °F 63% 29.58 in 10.0 mi South 19.6 mph 34.5 mph 0.00 in Rain Light Rain
6:53 PM 69.1 °F 57.0 °F 65% 29.61 in 10.0 mi SSW 13.8 mph 32.2 mph 0.00 in   Mostly Cloudy
7:53 PM 66.9 °F 57.0 °F 70% 29.64 in 10.0 mi SSW 11.5 mph 26.5 mph N/A   Partly Cloudy
8:53 PM 66.0 °F 57.9 °F 75% 29.65 in 10.0 mi SSW 15.0 mph 24.2 mph N/A   Partly Cloudy
9:53 PM 66.0 °F 57.0 °F 73% 29.65 in 10.0 mi SSW 15.0 mph 27.6 mph N/A   Clear
10:53 PM 64.9 °F 55.9 °F 73% 29.67 in 10.0 mi SW 10.4 mph 26.5 mph N/A   Mostly Cloudy
11:39 PM 63.0 °F 55.0 °F 75% 29.70 in 10.0 mi SW 11.5 mph 19.6 mph N/A   Scattered Clouds
11:53 PM 63.0 °F 55.0 °F 75% 29.68 in 10.0 mi SW 9.2 mph 23.0 mph N/A   Partly Cloudy